Location: Góry Miechowskie
(50.3599°N, 20.1803°E)
Time: 01:41:11
(UTC+00:00)

Transit 2A Rocket - Pass Details

Date: 21 September 2024
Orbit: 582 x 908 km, 66.7° (Epoch: 10 October)

Event Time Altitude Azimuth Distance (km) Brightness Sun altitude
Exits shadow 00:18:09 15° 316° (NW) 2,285 7.5 -34.3°
Maximum altitude 00:20:45 19° 346° (NNW) 2,045 7.5 -34.1°
Drops below altitude 10° 00:24:50 10° 29° (NNE) 2,559 8.5 -33.7°
Sets 00:28:08 0° 47° (NE) 3,459 9.4 -33.4°
